Preview of NWS' New Version of Forecast
This preview is not operational and should not be used for support decisions.

Regional Weather Roundup (RWR)

Issued by National Weather Service (NWS)

                            
000
ASCA42 TJSJ 200510
RWRPR 
PUERTO RICO/U.S. VIRGIN ISLANDS HOURLY WEATHER ROUNDUP
NATIONAL WEATHER SERVICE SAN JUAN PR
100 AM AST THU JUN 20 2019

PRZ001>002-007>008-010-200600-
PUERTO RICO
  
CITY           SKY/WX    TMP DP  RH WIND       PRES   REMARKS
SAN JUAN LMM   PTCLDY    81  75  83 E12       30.08F                  
CEIBA          CLOUDY    82  75  78 E9        30.11F                  
$$

VIZ001>002-200600-
U.S. VIRGIN ISLANDS
  
CITY           SKY/WX    TMP DP  RH WIND       PRES   REMARKS
CHARLOTTE AMA  CLEAR     82  73  74 E14       30.08F                  
CHRISTIANSTED  CLOUDY    81  73  78 E15       30.08F                  
$$

HOURLY WEATHER ROUNDUP FOR THE NEWS MEDIA
  
CITY           SKY/WX    TMP DP  RH WIND       PRES   REMARKS
ORLANDO        FAIR      75  72  90 S9        29.99F                  
NEW YORK       FOG       66  66 100 E7        29.75S VSB 1/2          
NEWARK         DRZL/FOG  67  67 100 E3        29.74S VSB 1            
CHICAGO        LGT RAIN  56  53  90 N12       29.66F                  
HARTFORD       CLOUDY    63  60  90 SE6       29.78F                  
BOSTON         CLOUDY    67  62  84 S8        29.77F                  
DALLAS         CLOUDY    84  76  76 N10       29.69R HX  93           
PHILADELPHIA   TSTM      69  68  96 E6        29.70  FOG              
LOS ANGELES    PTCLDY    64  57  78 W9        29.97R                  
WASHINGTON DC  MOCLDY    75  71  87 S9        29.68F